Starlink 2095

operational
NORAD ID: 47679 Int'l Des: 2021-012 Owner: SPXS Country: US Constellation: starlink
LEOCIRCULAR

About Starlink 2095

Description loading...

Live Position

Loading 3D Globe...

Upcoming Passes

Altitude History

Altitude vs Time

uPlot chart will show altitude changes over time

Two-Line Element Set

1 47679U 21012BM 25353.27658772 .00061218 00000-0 10299-2 0 9992
2 47679 53.0378 19.6121 0005665 59.7060 300.4508 15.51160728268620
Epoch: Dec 19, 2025 • Age: 29 hours

Current Status

Altitude 412.1 km
Velocity 7.67 km/s
Sub-Earth Point -0.23°S, 103.98°E
Launch Date Feb 16, 2021
Age 4.8 years
Type internet

Technical Details

Classification Payload
Mass 260.00 kg
Dry Mass 248.00 kg
Total Mass 260.00 kg
Length 0.20 m
Diameter 2.80 m
Span 9.00 m
Shape Box + pan
Manufacturer SPXS
Bus Type Starlink
Phase Status In Orbit
Owner/State SPXS/US

Large Constellations

Loading constellations...